When you browse on this site, cookies collect data to enhance your experience and personalize the content and advertising you see.
Visit our Privacy Policy to learn more. By continuing to use the site, you agree to this use of cookies and data.
EN

Hourly Weather Kramatorsk

Today, 12 July, Sunday

Time Temperature Precipitation Wind Pressure Humidity
00:00 +19°C° 0 mm 3 mps 755 mmHg 68%
01:00 +19°C° 0 mm 3 mps 755 mmHg 70%
02:00 +18°C° 0 mm 3 mps 754 mmHg 73%
03:00 +18°C° 0 mm 3 mps 754 mmHg 75%
04:00 +18°C° 0 mm 2 mps 754 mmHg 76%
05:00 +18°C° 0 mm 2 mps 754 mmHg 77%
06:00 +18°C° 0 mm 2 mps 753 mmHg 78%
07:00 +21°C° 0 mm 3 mps 753 mmHg 72%
08:00 +24°C° 0 mm 3 mps 753 mmHg 65%
09:00 +26°C° 0 mm 4 mps 753 mmHg 59%
10:00 +28°C° 0 mm 4 mps 752 mmHg 57%
11:00 +29°C° 0 mm 4 mps 752 mmHg 54%
12:00 +32°C° 0 mm 5 mps 752 mmHg 52%
13:00 +33°C° 0.3 mm 4 mps 751 mmHg 51%
14:00 +33°C° 0.3 mm 4 mps 751 mmHg 50%
15:00 +34°C° 0.3 mm 3 mps 751 mmHg 49%
16:00 +32°C° 0.7 mm 4 mps 750 mmHg 56%
17:00 +30°C° 0.7 mm 5 mps 750 mmHg 62%
18:00 +28°C° 0.7 mm 5 mps 749 mmHg 69%
19:00 +27°C° 2.4 mm 5 mps 749 mmHg 76%
20:00 +25°C° 2.4 mm 4 mps 749 mmHg 82%
21:00 +23°C° 2.4 mm 4 mps 749 mmHg 88%
22:00 +22°C° 2.5 mm 3 mps 749 mmHg 88%
23:00 +22°C° 2.5 mm 3 mps 748 mmHg 88%

Tomorrow, 13 July, Monday

Time Temperature Precipitation Wind Pressure Humidity
00:00 +21°C° 2.5 mm 2 mps 748 mmHg 88%
01:00 +21°C° 0.2 mm 2 mps 748 mmHg 89%
02:00 +20°C° 0.2 mm 2 mps 748 mmHg 90%
03:00 +20°C° 0.2 mm 3 mps 748 mmHg 91%
04:00 +20°C° 0 mm 3 mps 747 mmHg 91%
05:00 +20°C° 0 mm 3 mps 747 mmHg 91%
06:00 +20°C° 0 mm 3 mps 746 mmHg 91%
07:00 +22°C° 0 mm 3 mps 747 mmHg 84%
08:00 +24°C° 0 mm 3 mps 747 mmHg 77%
09:00 +26°C° 0 mm 2 mps 747 mmHg 70%
10:00 +27°C° 0 mm 2 mps 746 mmHg 65%
11:00 +29°C° 0 mm 1 mps 746 mmHg 59%
12:00 +31°C° 0 mm 1 mps 745 mmHg 54%
13:00 +31°C° 0 mm 1 mps 745 mmHg 53%
14:00 +31°C° 0 mm 1 mps 745 mmHg 52%
15:00 +31°C° 0 mm 1 mps 745 mmHg 51%
16:00 +29°C° 0.8 mm 3 mps 745 mmHg 58%
17:00 +28°C° 0.8 mm 5 mps 744 mmHg 64%
18:00 +26°C° 0.8 mm 7 mps 744 mmHg 70%
19:00 +25°C° 2 mm 5 mps 744 mmHg 76%
20:00 +22°C° 2 mm 3 mps 745 mmHg 81%
21:00 +22°C° 2 mm 1 mps 745 mmHg 87%
22:00 +22°C° 0.3 mm 1 mps 745 mmHg 88%
23:00 +22°C° 0.3 mm 1 mps 745 mmHg 89%

Day after tomorrow, 14 July, Tuesday

Time Temperature Precipitation Wind Pressure Humidity
00:00 +22°C° 0.3 mm 1 mps 744 mmHg 90%
01:00 +21°C° 0.2 mm 1 mps 744 mmHg 91%
02:00 +20°C° 0.2 mm 2 mps 744 mmHg 92%
03:00 +20°C° 0.2 mm 2 mps 744 mmHg 93%
04:00 +20°C° 0.2 mm 2 mps 744 mmHg 93%
05:00 +20°C° 0.2 mm 2 mps 744 mmHg 93%
06:00 +20°C° 0.2 mm 2 mps 744 mmHg 93%
07:00 +20°C° 0 mm 3 mps 745 mmHg 92%
08:00 +20°C° 0 mm 3 mps 745 mmHg 91%
09:00 +20°C° 0 mm 4 mps 745 mmHg 90%
10:00 +20°C° 0 mm 4 mps 745 mmHg 88%
11:00 +21°C° 0 mm 4 mps 745 mmHg 86%
12:00 +21°C° 0 mm 5 mps 745 mmHg 84%
13:00 +21°C° 0.1 mm 5 mps 745 mmHg 82%
14:00 +22°C° 0.1 mm 5 mps 745 mmHg 79%
15:00 +22°C° 0.1 mm 5 mps 745 mmHg 76%
16:00 +22°C° 0.2 mm 5 mps 745 mmHg 76%
17:00 +22°C° 0.2 mm 5 mps 745 mmHg 76%
18:00 +22°C° 0.2 mm 5 mps 745 mmHg 75%
19:00 +21°C° 0.2 mm 4 mps 746 mmHg 80%
20:00 +19°C° 0.2 mm 4 mps 746 mmHg 84%
21:00 +18°C° 0.2 mm 3 mps 746 mmHg 88%
22:00 +18°C° 0 mm 4 mps 746 mmHg 90%
23:00 +17°C° 0 mm 4 mps 746 mmHg 92%

15 July, Wednesday

Time Temperature Precipitation Wind Pressure Humidity
00:00 +15°C° 0 mm 5 mps 746 mmHg 93%
01:00 +16°C° 0 mm 5 mps 746 mmHg 92%
02:00 +16°C° 0 mm 5 mps 746 mmHg 91%
03:00 +16°C° 0 mm 5 mps 747 mmHg 90%
04:00 +16°C° 0.1 mm 5 mps 747 mmHg 90%
05:00 +16°C° 0.1 mm 5 mps 747 mmHg 90%
06:00 +16°C° 0.1 mm 6 mps 747 mmHg 89%
07:00 +16°C° 0 mm 6 mps 747 mmHg 88%
08:00 +16°C° 0 mm 6 mps 748 mmHg 87%
09:00 +16°C° 0 mm 7 mps 748 mmHg 85%
10:00 +18°C° 0.1 mm 7 mps 749 mmHg 79%
11:00 +20°C° 0.1 mm 6 mps 749 mmHg 73%
12:00 +21°C° 0.1 mm 6 mps 750 mmHg 67%
13:00 +22°C° 0.1 mm 6 mps 750 mmHg 64%
14:00 +23°C° 0.1 mm 6 mps 750 mmHg 60%
15:00 +23°C° 0.1 mm 5 mps 751 mmHg 56%
16:00 +23°C° 0 mm 5 mps 751 mmHg 55%
17:00 +23°C° 0 mm 5 mps 751 mmHg 55%
18:00 +23°C° 0 mm 4 mps 751 mmHg 54%
19:00 +22°C° 0 mm 4 mps 751 mmHg 60%
20:00 +20°C° 0 mm 3 mps 751 mmHg 65%
21:00 +18°C° 0 mm 2 mps 752 mmHg 71%
22:00 +18°C° 0 mm 2 mps 752 mmHg 73%
23:00 +17°C° 0 mm 2 mps 752 mmHg 75%

16 July, Thursday

Time Temperature Precipitation Wind Pressure Humidity
00:00 +16°C° 0 mm 2 mps 752 mmHg 78%
01:00 +16°C° 0 mm 2 mps 752 mmHg 79%
02:00 +15°C° 0 mm 2 mps 752 mmHg 81%
03:00 +15°C° 0 mm 2 mps 752 mmHg 83%
04:00 +15°C° 0 mm 2 mps 752 mmHg 84%
05:00 +15°C° 0 mm 2 mps 752 mmHg 84%
06:00 +16°C° 0 mm 2 mps 752 mmHg 84%
07:00 +18°C° 0 mm 2 mps 752 mmHg 75%
08:00 +20°C° 0 mm 2 mps 752 mmHg 66%
09:00 +21°C° 0 mm 2 mps 752 mmHg 56%
10:00 +23°C° 0 mm 2 mps 752 mmHg 53%
11:00 +24°C° 0 mm 2 mps 752 mmHg 50%
12:00 +25°C° 0 mm 3 mps 752 mmHg 47%
13:00 +25°C° 0.1 mm 3 mps 752 mmHg 49%
14:00 +25°C° 0.1 mm 2 mps 751 mmHg 50%
15:00 +25°C° 0.1 mm 2 mps 751 mmHg 52%
16:00 +25°C° 0.1 mm 2 mps 751 mmHg 53%
17:00 +25°C° 0.1 mm 2 mps 751 mmHg 54%
18:00 +25°C° 0.1 mm 2 mps 751 mmHg 54%
19:00 +24°C° 0 mm 1 mps 751 mmHg 60%
20:00 +22°C° 0 mm 1 mps 751 mmHg 65%
21:00 +21°C° 0 mm 1 mps 751 mmHg 70%
22:00 +20°C° 0 mm 1 mps 751 mmHg 71%
23:00 +20°C° 0 mm 1 mps 751 mmHg 73%

17 July, Friday

Time Temperature Precipitation Wind Pressure Humidity
00:00 +19°C° 0 mm 1 mps 751 mmHg 74%
01:00 +19°C° 0 mm 1 mps 751 mmHg 75%
02:00 +18°C° 0 mm 2 mps 751 mmHg 75%
03:00 +17°C° 0 mm 2 mps 751 mmHg 76%
04:00 +17°C° 0 mm 2 mps 751 mmHg 75%
05:00 +18°C° 0 mm 2 mps 751 mmHg 75%
06:00 +19°C° 0 mm 1 mps 751 mmHg 75%
07:00 +20°C° 0 mm 2 mps 751 mmHg 68%
08:00 +23°C° 0 mm 2 mps 751 mmHg 61%
09:00 +25°C° 0 mm 3 mps 751 mmHg 55%
10:00 +26°C° 0 mm 3 mps 751 mmHg 50%
11:00 +28°C° 0 mm 3 mps 751 mmHg 45%
12:00 +29°C° 0 mm 3 mps 751 mmHg 41%
13:00 +29°C° 0 mm 3 mps 750 mmHg 40%
14:00 +29°C° 0 mm 3 mps 750 mmHg 38%
15:00 +30°C° 0 mm 2 mps 750 mmHg 37%
16:00 +29°C° 0 mm 2 mps 750 mmHg 39%
17:00 +29°C° 0 mm 2 mps 749 mmHg 41%
18:00 +29°C° 0 mm 1 mps 749 mmHg 44%
19:00 +27°C° 0 mm 1 mps 749 mmHg 47%
20:00 +25°C° 0 mm 1 mps 750 mmHg 51%
21:00 +23°C° 0 mm 1 mps 750 mmHg 55%
22:00 +23°C° 0 mm 1 mps 750 mmHg 55%
23:00 +22°C° 0 mm 1 mps 750 mmHg 56%
Show more